Regional Weather Roundup
Issued by NWS

Home | Current Version | Previous Version | Text Only | Print | Product List | Glossary On
Versions: 1 2 3 4 5 6 7 8 9 10 11 12 13 14 15 16 17 18 19 20 21 22 23 24 25 26 27 28 29 30 31 32 33 34 35 36 37 38 39 40 41 42 43 44 45 46 47 48 49 50
000
ASMX46 KSGX 290611
RWRMX

MEXICAN WEATHER ROUNDUP
NATIONAL WEATHER SERVICE SAN DIEGO CA
1100 PM PDT FRI AUG 28 2015

BAJA CALIFORNIA

CITY           SKY/WX    TMP DP  RH WIND       PRES   REMARKS
ENSENADA NW      N/A     73  32  22 NW8       29.85F
LA PAZ           N/A    N/A N/A N/A MISG        N/A
TIJUANA        CLEAR     73  66  78 NW6       29.91R

NORTHWESTERN MEXICO

CITY           SKY/WX    TMP DP  RH WIND       PRES   REMARKS
CULIACAN         N/A    N/A N/A N/A MISG        N/A
HERMOSILLO     CLEAR     91  75  59 S7        29.84S HX 102

NORTHEASTERN MEXICO

CITY           SKY/WX    TMP DP  RH WIND       PRES   REMARKS
MONTERREY      CLEAR     73  59  60 E5        30.02R
REYNOSA        CLEAR     72  64  78 SE5       29.99S
TORREON        CLEAR     81  36  19 E8        30.09R

WESTERN MEXICO

CITY           SKY/WX    TMP DP  RH WIND       PRES   REMARKS
AGUASCALIENTES   N/A    N/A N/A N/A MISG        N/A
GUADALAJARA    CLEAR     63  59  88 CALM      30.16R
MAZATLAN       PTCLDY    81  75  83 CALM      29.81S
PTO. VALLARTA    N/A    N/A N/A N/A MISG        N/A
ZACATECAS        N/A    N/A N/A N/A MISG        N/A

CENTRAL MEXICO

CITY           SKY/WX    TMP DP  RH WIND       PRES   REMARKS
LEON           CLEAR     63  48  59 NE8       30.31R
MEXICO CITY    MOCLDY    63  50  63 NE5       30.37S
PUEBLA         CLOUDY    57  52  82 N8        30.35
QUERETARO      CLEAR     55  54  94 E8        30.35
S. LUIS POTOSI CLEAR     61  50  67 SE14      30.28F
TAMPICO          N/A    N/A N/A N/A MISG        N/A
TOLUCA         PTCLDY    55  48  76 CALM      30.42S
VERACRUZ       CLOUDY    75  73  94 W6        29.96F

SOUTHERN MEXICO

CITY           SKY/WX    TMP DP  RH WIND       PRES   REMARKS
ACAPULCO       PTCLDY    81  77  89 NE2       29.91S
OAXACA         CLOUDY    64  63  94 CALM      30.26S
TAPACHULA      MOCLDY    81  77  89 NE5       29.92S

YUCATAN PENINSULA

CITY           SKY/WX    TMP DP  RH WIND       PRES   REMARKS
CANCUN         CLOUDY    79  79 100 CALM      29.96F
COZUMEL        MOCLDY    77  77 100 CALM      29.97F
MERIDA         CLOUDY    75  73  94 CALM      29.97F

$$



USA.gov is the U.S. government's official web portal to all federal, state and local government web resources and services.